"Sample Date","Sample Time","Sample Value","Units","Flow Rate","Sample Interval","Number Channels","Micron Size 0","Counts/Channel 0","Micron Size 1","Counts/Channel 1","Micron Size 2","Counts/Channel 2","Micron Size 3","Counts/Channel 3","Micron Size 4","Counts/Channel 4","Micron Size 5","Counts/Channel 5","Micron Size 6","Counts/Channel 6","Micron Size 7","Counts/Channel 7","Micron Size 8","Counts/Channel 8","Micron Size 9","Counts/Channel 9","Micron Size 10","Counts/Channel 10","Micron Size 11","Counts/Channel 11","Micron Size 12","Counts/Channel 12","Micron Size 13","Counts/Channel 13","Micron Size 14","Counts/Channel 14","Micron Size 15","Counts/Channel 15","Micron Size 16","Counts/Channel 16","Micron Size 17","Counts/Channel 17","Micron Size 18","Counts/Channel 18","Micron Size 19","Counts/Channel 19","Micron Size 20","Counts/Channel 20","Micron Size 21","Counts/Channel 21","Micron Size 22","Counts/Channel 22","Micron Size 23","Counts/Channel 23","Micron Size 24","Counts/Channel 24","Micron Size 25","Counts/Channel 25","Micron Size 26","Counts/Channel 26","Micron Size 27","Counts/Channel 27","Micron Size 28","Counts/Channel 28","Micron Size 29","Counts/Channel 29","Micron Size 30","Counts/Channel 30","Micron Size 31","Counts/Channel 31"
"03/07/08","06:00:02",18333.000,"cc",28350.385,6.00,6,0.100,16634.000,0.200,1256.000,0.300,275.000,0.500,150.000,1.000,18.000,5.000,0
"03/07/08","06:00:08",18232.000,"cc",28267.918,6.00,6,0.100,16569.000,0.200,1200.000,0.300,307.000,0.500,134.000,1.000,22.000,5.000,0
"03/07/08","06:00:14",18742.000,"cc",28295.447,6.00,6,0.100,16874.000,0.200,1323.000,0.300,340.000,0.500,176.000,1.000,29.000,5.000,0
"03/07/08","06:00:20",18334.000,"cc",28386.551,6.00,6,0.100,16584.000,0.200,1223.000,0.300,330.000,0.500,175.000,1.000,22.000,5.000,0
"03/07/08","06:00:26",17887.000,"cc",28218.975,6.00,6,0.100,16287.000,0.200,1167.000,0.300,263.000,0.500,147.000,1.000,23.000,5.000,0
"03/07/08","06:00:32",18667.000,"cc",28330.492,6.00,6,0.100,16894.000,0.200,1222.000,0.300,351.000,0.500,184.000,1.000,16.000,5.000,0
"03/07/08","06:00:38",18016.000,"cc",28326.395,6.00,6,0.100,16410.000,0.200,1155.000,0.300,264.000,0.500,173.000,1.000,14.000,5.000,0
"03/07/08","06:00:44",18284.000,"cc",28366.953,6.00,6,0.100,16613.000,0.200,1190.000,0.300,283.000,0.500,181.000,1.000,17.000,5.000,0
"03/07/08","06:00:50",18335.000,"cc",28364.906,6.00,6,0.100,16645.000,0.200,1242.000,0.300,272.000,0.500,147.000,1.000,29.000,5.000,0
"03/07/08","06:00:56",17911.000,"cc",28254.148,6.00,6,0.100,16255.000,0.200,1159.000,0.300,296.000,0.500,173.000,1.000,28.000,5.000,0
"03/07/08","06:01:02",17992.000,"cc",28298.543,6.00,6,0.100,16334.000,0.200,1185.000,0.300,291.000,0.500,160.000,1.000,22.000,5.000,0
"03/07/08","06:01:08",17972.000,"cc",28423.920,6.00,6,0.100,16452.000,0.200,1117.000,0.300,247.000,0.500,139.000,1.000,17.000,5.000,0
"03/07/08","06:01:14",18195.000,"cc",28218.807,6.00,6,0.100,16497.000,0.200,1215.000,0.300,283.000,0.500,168.000,1.000,32.000,5.000,0
"03/07/08","06:01:20",18117.000,"cc",28306.500,6.00,6,0.100,16391.000,0.200,1210.000,0.300,314.000,0.500,180.000,1.000,22.000,5.000,0
"03/07/08","06:01:26",18094.000,"cc",28366.529,6.00,6,0.100,16554.000,0.200,1116.000,0.300,267.000,0.500,144.000,1.000,13.000,5.000,0
"03/07/08","06:01:32",17673.000,"cc",28328.902,6.00,6,0.100,16031.000,0.200,1197.000,0.300,270.000,0.500,153.000,1.000,22.000,5.000,0
"03/07/08","06:01:38",17914.000,"cc",28353.592,6.00,6,0.100,16276.000,0.200,1187.000,0.300,274.000,0.500,152.000,1.000,25.000,5.000,0
"03/07/08","06:01:44",17900.000,"cc",28304.033,6.00,6,0.100,16231.000,0.200,1239.000,0.300,271.000,0.500,141.000,1.000,18.000,5.000,0
"03/07/08","06:01:50",18101.000,"cc",28337.533,6.00,6,0.100,16485.000,0.200,1175.000,0.300,268.000,0.500,157.000,1.000,16.000,5.000,0
"03/07/08","06:01:56",17637.000,"cc",28356.709,6.00,6,0.100,16099.000,0.200,1133.000,0.300,245.000,0.500,142.000,1.000,18.000,5.000,0
"03/07/08","06:02:02",17777.000,"cc",28313.832,6.00,6,0.100,16205.000,0.200,1130.000,0.300,278.000,0.500,148.000,1.000,16.000,5.000,0
"03/07/08","06:02:08",17749.000,"cc",28302.391,6.00,6,0.100,16112.000,0.200,1179.000,0.300,280.000,0.500,149.000,1.000,29.000,5.000,0
"03/07/08","06:02:14",17773.000,"cc",28280.897,6.00,6,0.100,16127.000,0.200,1202.000,0.300,269.000,0.500,152.000,1.000,23.000,5.000,0
"03/07/08","06:02:20",17828.000,"cc",28312.344,6.00,6,0.100,16165.000,0.200,1212.000,0.300,275.000,0.500,154.000,1.000,22.000,5.000,0
"03/07/08","06:02:26",17737.000,"cc",28367.065,6.00,6,0.100,16085.000,0.200,1221.000,0.300,254.000,0.500,162.000,1.000,15.000,5.000,0
"03/07/08","06:02:32",17675.000,"cc",28297.768,6.00,6,0.100,15983.000,0.200,1244.000,0.300,284.000,0.500,141.000,1.000,23.000,5.000,0
"03/07/08","06:02:38",17764.000,"cc",28311.318,6.00,6,0.100,16148.000,0.200,1136.000,0.300,308.000,0.500,154.000,1.000,18.000,5.000,0
"03/07/08","06:02:44",17537.000,"cc",28264.190,6.00,6,0.100,15962.000,0.200,1137.000,0.300,260.000,0.500,160.000,1.000,18.000,5.000,0
"03/07/08","06:02:50",17787.000,"cc",28383.389,6.00,6,0.100,16182.000,0.200,1180.000,0.300,259.000,0.500,146.000,1.000,20.000,5.000,0
"03/07/08","06:02:56",17744.000,"cc",28365.486,6.00,6,0.100,16082.000,0.200,1211.000,0.300,294.000,0.500,131.000,1.000,26.000,5.000,0
"03/07/08","06:03:02",17739.000,"cc",28243.514,6.00,6,0.100,16088.000,0.200,1190.000,0.300,289.000,0.500,141.000,1.000,31.000,5.000,0
"03/07/08","06:03:08",17401.000,"cc",28416.658,6.00,6,0.100,15765.000,0.200,1172.000,0.300,287.000,0.500,150.000,1.000,27.000,5.000,0
"03/07/08","06:03:14",17733.000,"cc",28294.225,6.00,6,0.100,16097.000,0.200,1166.000,0.300,290.000,0.500,157.000,1.000,23.000,5.000,0
"03/07/08","06:03:20",17723.000,"cc",28367.543,6.00,6,0.100,16045.000,0.200,1188.000,0.300,308.000,0.500,164.000,1.000,18.000,5.000,0
"03/07/08","06:03:26",17592.000,"cc",28331.035,6.00,6,0.100,15945.000,0.200,1194.000,0.300,277.000,0.500,160.000,1.000,16.000,5.000,0
"03/07/08","06:03:32",17598.000,"cc",28248.539,6.00,6,0.100,15987.000,0.200,1143.000,0.300,306.000,0.500,140.000,1.000,22.000,5.000,0
"03/07/08","06:03:38",17534.000,"cc",28314.842,6.00,6,0.100,15932.000,0.200,1148.000,0.300,292.000,0.500,139.000,1.000,23.000,5.000,0
"03/07/08","06:03:44",17416.000,"cc",28290.781,6.00,6,0.100,15751.000,0.200,1166.000,0.300,308.000,0.500,176.000,1.000,15.000,5.000,0
"03/07/08","06:03:50",17282.000,"cc",28302.647,6.00,6,0.100,15596.000,0.200,1180.000,0.300,285.000,0.500,192.000,1.000,29.000,5.000,0
"03/07/08","06:03:56",17663.000,"cc",28280.482,6.00,6,0.100,15944.000,0.200,1265.000,0.300,287.000,0.500,146.000,1.000,21.000,5.000,0
"03/07/08","06:04:02",17315.000,"cc",28335.475,6.00,6,0.100,15774.000,0.200,1133.000,0.300,243.000,0.500,145.000,1.000,20.000,5.000,0
"03/07/08","06:04:08",17598.000,"cc",28336.031,6.00,6,0.100,15856.000,0.200,1230.000,0.300,311.000,0.500,178.000,1.000,23.000,5.000,0
"03/07/08","06:04:14",16912.000,"cc",28287.018,6.00,6,0.100,15427.000,0.200,1089.000,0.300,239.000,0.500,132.000,1.000,25.000,5.000,0
"03/07/08","06:04:20",17434.000,"cc",28276.031,6.00,6,0.100,15799.000,0.200,1154.000,0.300,293.000,0.500,173.000,1.000,15.000,5.000,0
"03/07/08","06:04:26",16925.000,"cc",28384.576,6.00,6,0.100,15397.000,0.200,1091.000,0.300,289.000,0.500,131.000,1.000,17.000,5.000,0
"03/07/08","06:04:32",17606.000,"cc",28325.660,6.00,6,0.100,15984.000,0.200,1151.000,0.300,289.000,0.500,160.000,1.000,22.000,5.000,0
"03/07/08","06:04:38",17460.000,"cc",28338.250,6.00,6,0.100,15855.000,0.200,1149.000,0.300,284.000,0.500,151.000,1.000,21.000,5.000,0
"03/07/08","06:04:44",17434.000,"cc",28317.674,6.00,6,0.100,15792.000,0.200,1186.000,0.300,275.000,0.500,157.000,1.000,24.000,5.000,0
"03/07/08","06:04:50",17481.000,"cc",28304.139,6.00,6,0.100,15779.000,0.200,1198.000,0.300,304.000,0.500,164.000,1.000,36.000,5.000,0
"03/07/08","06:04:56",17593.000,"cc",28335.141,6.00,6,0.100,15925.000,0.200,1171.000,0.300,298.000,0.500,170.000,1.000,29.000,5.000,0
"03/07/08","06:05:02",17605.000,"cc",28350.639,6.00,6,0.100,15789.000,0.200,1251.000,0.300,342.000,0.500,192.000,1.000,31.000,5.000,0
"03/07/08","06:05:08",17501.000,"cc",28279.170,6.00,6,0.100,15877.000,0.200,1170.000,0.300,288.000,0.500,145.000,1.000,21.000,5.000,0
"03/07/08","06:05:14",17353.000,"cc",28248.816,6.00,6,0.100,15719.000,0.200,1140.000,0.300,312.000,0.500,151.000,1.000,31.000,5.000,0
"03/07/08","06:05:20",16978.000,"cc",28421.270,6.00,6,0.100,15455.000,0.200,1118.000,0.300,246.000,0.500,139.000,1.000,20.000,5.000,0
"03/07/08","06:05:26",17127.000,"cc",28315.820,6.00,6,0.100,15509.000,0.200,1167.000,0.300,310.000,0.500,125.000,1.000,16.000,5.000,0
"03/07/08","06:05:32",17090.000,"cc",28265.668,6.00,6,0.100,15417.000,0.200,1221.000,0.300,287.000,0.500,141.000,1.000,24.000,5.000,0
"03/07/08","06:05:38",17270.000,"cc",28326.971,6.00,6,0.100,15591.000,0.200,1194.000,0.300,295.000,0.500,165.000,1.000,25.000,5.000,0
"03/07/08","06:05:44",16873.000,"cc",28335.303,6.00,6,0.100,15287.000,0.200,1124.000,0.300,303.000,0.500,132.000,1.000,27.000,5.000,0
"03/07/08","06:05:50",17088.000,"cc",28267.568,6.00,6,0.100,15466.000,0.200,1123.000,0.300,306.000,0.500,158.000,1.000,35.000,5.000,0
"03/07/08","06:05:56",17998.000,"cc",28327.553,6.00,6,0.100,16041.000,0.200,1328.000,0.300,389.000,0.500,206.000,1.000,34.000,5.000,0
"03/07/08","06:06:02",17660.000,"cc",28342.986,6.00,6,0.100,15753.000,0.200,1319.000,0.300,356.000,0.500,202.000,1.000,30.000,5.000,0
"03/07/08","06:06:08",17115.000,"cc",28271.170,6.00,6,0.100,15458.000,0.200,1178.000,0.300,290.000,0.500,165.000,1.000,24.000,5.000,0
"03/07/08","06:06:14",16954.000,"cc",28378.551,6.00,6,0.100,15377.000,0.200,1096.000,0.300,290.000,0.500,167.000,1.000,24.000,5.000,0
"03/07/08","06:06:20",16670.000,"cc",28283.691,6.00,6,0.100,15144.000,0.200,1092.000,0.300,265.000,0.500,153.000,1.000,16.000,5.000,0
"03/07/08","06:06:26",16966.000,"cc",28235.440,6.00,6,0.100,15271.000,0.200,1183.000,0.300,302.000,0.500,177.000,1.000,33.000,5.000,0
"03/07/08","06:06:32",16961.000,"cc",28366.941,6.00,6,0.100,15387.000,0.200,1127.000,0.300,284.000,0.500,138.000,1.000,25.000,5.000,0
"03/07/08","06:06:38",16941.000,"cc",28311.231,6.00,6,0.100,15219.000,0.200,1220.000,0.300,310.000,0.500,163.000,1.000,29.000,5.000,0
"03/07/08","06:06:44",16784.000,"cc",28237.252,6.00,6,0.100,15149.000,0.200,1142.000,0.300,283.000,0.500,181.000,1.000,29.000,5.000,0
"03/07/08","06:06:50",16624.000,"cc",28337.979,6.00,6,0.100,15088.000,0.200,1044.000,0.300,283.000,0.500,182.000,1.000,27.000,5.000,0
"03/07/08","06:06:56",16858.000,"cc",28346.684,6.00,6,0.100,15162.000,0.200,1194.000,0.300,310.000,0.500,165.000,1.000,27.000,5.000,0
"03/07/08","06:07:02",16751.000,"cc",28411.631,6.00,6,0.100,15135.000,0.200,1138.000,0.300,302.000,0.500,161.000,1.000,15.000,5.000,0
"03/07/08","06:07:08",16547.000,"cc",28297.406,6.00,6,0.100,15022.000,0.200,1104.000,0.300,271.000,0.500,131.000,1.000,19.000,5.000,0
"03/07/08","06:07:14",16561.000,"cc",28336.576,6.00,6,0.100,14980.000,0.200,1137.000,0.300,279.000,0.500,146.000,1.000,19.000,5.000,0
"03/07/08","06:07:20",16524.000,"cc",28352.568,6.00,6,0.100,14900.000,0.200,1124.000,0.300,312.000,0.500,160.000,1.000,28.000,5.000,0
"03/07/08","06:07:26",16742.000,"cc",28315.072,6.00,6,0.100,15060.000,0.200,1179.000,0.300,294.000,0.500,173.000,1.000,36.000,5.000,0
"03/07/08","06:07:32",17089.000,"cc",28242.627,6.00,6,0.100,15325.000,0.200,1164.000,0.300,357.000,0.500,210.000,1.000,33.000,5.000,0
"03/07/08","06:07:38",16685.000,"cc",28399.994,6.00,6,0.100,14993.000,0.200,1164.000,0.300,315.000,0.500,186.000,1.000,27.000,5.000,0
"03/07/08","06:07:44",16599.000,"cc",28324.000,6.00,6,0.100,14913.000,0.200,1136.000,0.300,325.000,0.500,197.000,1.000,28.000,5.000,0
"03/07/08","06:07:50",16146.000,"cc",28269.063,6.00,6,0.100,14597.000,0.200,1105.000,0.300,285.000,0.500,146.000,1.000,13.000,5.000,0
"03/07/08","06:07:56",16059.000,"cc",28271.481,6.00,6,0.100,14522.000,0.200,1102.000,0.300,265.000,0.500,151.000,1.000,19.000,5.000,0
"03/07/08","06:08:02",16267.000,"cc",28337.352,6.00,6,0.100,14632.000,0.200,1128.000,0.300,289.000,0.500,191.000,1.000,27.000,5.000,0
"03/07/08","06:08:08",16756.000,"cc",28274.121,6.00,6,0.100,15035.000,0.200,1141.000,0.300,333.000,0.500,203.000,1.000,44.000,5.000,0
"03/07/08","06:08:14",16650.000,"cc",28298.385,6.00,6,0.100,14933.000,0.200,1171.000,0.300,327.000,0.500,188.000,1.000,31.000,5.000,0
"03/07/08","06:08:20",16491.000,"cc",28377.674,6.00,6,0.100,14812.000,0.200,1138.000,0.300,321.000,0.500,189.000,1.000,31.000,5.000,0
"03/07/08","06:08:26",17648.000,"cc",28287.486,6.00,6,0.100,15446.000,0.200,1387.000,0.300,480.000,0.500,294.000,1.000,41.000,5.000,0
"03/07/08","06:08:32",16292.000,"cc",28341.520,6.00,6,0.100,14671.000,0.200,1135.000,0.300,292.000,0.500,170.000,1.000,24.000,5.000,0
"03/07/08","06:08:38",16386.000,"cc",28293.973,6.00,6,0.100,14820.000,0.200,1082.000,0.300,282.000,0.500,176.000,1.000,26.000,5.000,0
"03/07/08","06:08:44",16301.000,"cc",28335.293,6.00,6,0.100,14685.000,0.200,1097.000,0.300,295.000,0.500,192.000,1.000,32.000,5.000,0
"03/07/08","06:08:50",16196.000,"cc",28311.178,6.00,6,0.100,14549.000,0.200,1144.000,0.300,300.000,0.500,179.000,1.000,24.000,5.000,0
"03/07/08","06:08:56",16207.000,"cc",28322.973,6.00,6,0.100,14641.000,0.200,1064.000,0.300,275.000,0.500,207.000,1.000,20.000,5.000,0
"03/07/08","06:09:02",16110.000,"cc",28296.494,6.00,6,0.100,14405.000,0.200,1136.000,0.300,347.000,0.500,190.000,1.000,32.000,5.000,0
"03/07/08","06:09:08",16225.000,"cc",28301.973,6.00,6,0.100,14662.000,0.200,1056.000,0.300,306.000,0.500,178.000,1.000,23.000,5.000,0
"03/07/08","06:09:14",16063.000,"cc",28343.815,6.00,6,0.100,14492.000,0.200,1083.000,0.300,296.000,0.500,167.000,1.000,25.000,5.000,0
"03/07/08","06:09:20",16045.000,"cc",28350.674,6.00,6,0.100,14461.000,0.200,1084.000,0.300,300.000,0.500,167.000,1.000,33.000,5.000,0
"03/07/08","06:09:26",16060.000,"cc",28232.725,6.00,6,0.100,14400.000,0.200,1156.000,0.300,286.000,0.500,193.000,1.000,25.000,5.000,0
"03/07/08","06:09:32",16076.000,"cc",28348.441,6.00,6,0.100,14515.000,0.200,1057.000,0.300,324.000,0.500,158.000,1.000,22.000,5.000,0
"03/07/08","06:09:38",15795.000,"cc",28289.225,6.00,6,0.100,14279.000,0.200,1034.000,0.300,286.000,0.500,173.000,1.000,23.000,5.000,0
"03/07/08","06:09:44",16221.000,"cc",28326.156,6.00,6,0.100,14635.000,0.200,1107.000,0.300,278.000,0.500,179.000,1.000,22.000,5.000,0
"03/07/08","06:09:50",16032.000,"cc",28341.729,6.00,6,0.100,14457.000,0.200,1069.000,0.300,299.000,0.500,191.000,1.000,16.000,5.000,0
"03/07/08","06:09:56",15988.000,"cc",28303.842,6.00,6,0.100,14474.000,0.200,1041.000,0.300,287.000,0.500,155.000,1.000,31.000,5.000,0
"03/07/08","06:10:02",16165.000,"cc",28306.592,6.00,6,0.100,14499.000,0.200,1141.000,0.300,336.000,0.500,164.000,1.000,25.000,5.000,0
"03/07/08","06:10:08",16082.000,"cc",28382.820,6.00,6,0.100,14439.000,0.200,1104.000,0.300,313.000,0.500,199.000,1.000,27.000,5.000,0
"03/07/08","06:10:14",15923.000,"cc",28281.518,6.00,6,0.100,14367.000,0.200,1083.000,0.300,294.000,0.500,155.000,1.000,24.000,5.000,0
"03/07/08","06:10:20",15747.000,"cc",28261.678,6.00,6,0.100,14162.000,0.200,1109.000,0.300,298.000,0.500,158.000,1.000,20.000,5.000,0
"03/07/08","06:10:26",16096.000,"cc",28288.441,6.00,6,0.100,14482.000,0.200,1113.000,0.300,290.000,0.500,189.000,1.000,22.000,5.000,0
"03/07/08","06:10:32",15578.000,"cc",28324.447,6.00,6,0.100,14105.000,0.200,1054.000,0.300,273.000,0.500,128.000,1.000,18.000,5.000,0
"03/07/08","06:10:38",15912.000,"cc",28355.629,6.00,6,0.100,14396.000,0.200,1099.000,0.300,279.000,0.500,120.000,1.000,18.000,5.000,0
"03/07/08","06:10:44",15783.000,"cc",28327.457,6.00,6,0.100,14222.000,0.200,1092.000,0.300,290.000,0.500,149.000,1.000,30.000,5.000,0
"03/07/08","06:10:50",15878.000,"cc",28349.512,6.00,6,0.100,14360.000,0.200,1084.000,0.300,286.000,0.500,133.000,1.000,15.000,5.000,0
"03/07/08","06:10:56",16202.000,"cc",28351.813,6.00,6,0.100,14472.000,0.200,1155.000,0.300,374.000,0.500,168.000,1.000,33.000,5.000,0
"03/07/08","06:11:02",16173.000,"cc",28294.334,6.00,6,0.100,14612.000,0.200,1093.000,0.300,280.000,0.500,166.000,1.000,22.000,5.000,0
"03/07/08","06:11:08",15829.000,"cc",28326.588,6.00,6,0.100,14328.000,0.200,1087.000,0.300,257.000,0.500,138.000,1.000,19.000,5.000,0
"03/07/08","06:11:14",16120.000,"cc",28313.217,6.00,6,0.100,14548.000,0.200,1153.000,0.300,271.000,0.500,123.000,1.000,25.000,5.000,0
"03/07/08","06:11:20",15627.000,"cc",28337.617,6.00,6,0.100,14134.000,0.200,1075.000,0.300,258.000,0.500,149.000,1.000,11.000,5.000,0
"03/07/08","06:11:26",15818.000,"cc",28330.662,6.00,6,0.100,14331.000,0.200,1048.000,0.300,288.000,0.500,134.000,1.000,17.000,5.000,0
"03/07/08","06:11:32",15846.000,"cc",28300.777,6.00,6,0.100,14299.000,0.200,1120.000,0.300,287.000,0.500,123.000,1.000,17.000,5.000,0
"03/07/08","06:11:38",15957.000,"cc",28342.402,6.00,6,0.100,14323.000,0.200,1137.000,0.300,301.000,0.500,174.000,1.000,22.000,5.000,0
"03/07/08","06:11:44",15819.000,"cc",28218.424,6.00,6,0.100,14281.000,0.200,1094.000,0.300,278.000,0.500,152.000,1.000,14.000,5.000,0
"03/07/08","06:11:50",16082.000,"cc",28330.283,6.00,6,0.100,14538.000,0.200,1076.000,0.300,299.000,0.500,151.000,1.000,18.000,5.000,0
"03/07/08","06:11:56",15735.000,"cc",28366.586,6.00,6,0.100,14286.000,0.200,1035.000,0.300,286.000,0.500,115.000,1.000,13.000,5.000,0
"03/07/08","06:12:02",16159.000,"cc",28292.889,6.00,6,0.100,14619.000,0.200,1095.000,0.300,287.000,0.500,142.000,1.000,16.000,5.000,0
"03/07/08","06:12:08",18884.000,"cc",28313.207,6.00,6,0.100,16105.000,0.200,1812.000,0.300,641.000,0.500,299.000,1.000,27.000,5.000,0
"03/07/08","06:12:14",16199.000,"cc",28279.170,6.00,6,0.100,14601.000,0.200,1125.000,0.300,291.000,0.500,162.000,1.000,20.000,5.000,0
"03/07/08","06:12:20",16104.000,"cc",28322.227,6.00,6,0.100,14546.000,0.200,1094.000,0.300,322.000,0.500,130.000,1.000,12.000,5.000,0
"03/07/08","06:12:26",16235.000,"cc",28306.285,6.00,6,0.100,14710.000,0.200,1107.000,0.300,260.000,0.500,144.000,1.000,14.000,5.000,0
"03/07/08","06:12:32",16484.000,"cc",28374.070,6.00,6,0.100,14888.000,0.200,1173.000,0.300,270.000,0.500,140.000,1.000,13.000,5.000,0
"03/07/08","06:12:38",16276.000,"cc",28325.758,6.00,6,0.100,14668.000,0.200,1114.000,0.300,315.000,0.500,166.000,1.000,13.000,5.000,0
"03/07/08","06:12:44",16378.000,"cc",28254.227,6.00,6,0.100,14742.000,0.200,1173.000,0.300,289.000,0.500,156.000,1.000,18.000,5.000,0
"03/07/08","06:12:50",15915.000,"cc",28303.756,6.00,6,0.100,14391.000,0.200,1085.000,0.300,277.000,0.500,143.000,1.000,19.000,5.000,0
"03/07/08","06:12:56",15920.000,"cc",28332.690,6.00,6,0.100,14431.000,0.200,1059.000,0.300,289.000,0.500,127.000,1.000,14.000,5.000,0
"03/07/08","06:13:02",15860.000,"cc",28350.981,6.00,6,0.100,14424.000,0.200,1041.000,0.300,248.000,0.500,133.000,1.000,14.000,5.000,0
"03/07/08","06:13:08",16398.000,"cc",28356.854,6.00,6,0.100,14826.000,0.200,1136.000,0.300,276.000,0.500,139.000,1.000,21.000,5.000,0
"03/07/08","06:13:14",15998.000,"cc",28363.719,6.00,6,0.100,14480.000,0.200,1096.000,0.300,289.000,0.500,119.000,1.000,14.000,5.000,0
"03/07/08","06:13:20",15980.000,"cc",28300.201,6.00,6,0.100,14332.000,0.200,1158.000,0.300,304.000,0.500,167.000,1.000,19.000,5.000,0
"03/07/08","06:13:26",16037.000,"cc",28327.272,6.00,6,0.100,14461.000,0.200,1129.000,0.300,311.000,0.500,122.000,1.000,14.000,5.000,0
"03/07/08","06:13:32",15617.000,"cc",28322.563,6.00,6,0.100,14100.000,0.200,1107.000,0.300,290.000,0.500,110.000,1.000,10.000,5.000,0
"03/07/08","06:13:38",15970.000,"cc",28279.287,6.00,6,0.100,14340.000,0.200,1143.000,0.300,319.000,0.500,147.000,1.000,21.000,5.000,0
"03/07/08","06:13:44",15886.000,"cc",28275.992,6.00,6,0.100,14381.000,0.200,1074.000,0.300,291.000,0.500,125.000,1.000,15.000,5.000,0
"03/07/08","06:13:50",15923.000,"cc",28295.303,6.00,6,0.100,14334.000,0.200,1123.000,0.300,315.000,0.500,134.000,1.000,17.000,5.000,0
"03/07/08","06:13:56",15929.000,"cc",28391.234,6.00,6,0.100,14359.000,0.200,1117.000,0.300,318.000,0.500,122.000,1.000,13.000,5.000,0
"03/07/08","06:14:02",15414.000,"cc",28277.213,6.00,6,0.100,13856.000,0.200,1102.000,0.300,297.000,0.500,140.000,1.000,19.000,5.000,0
"03/07/08","06:14:08",16141.000,"cc",28269.066,6.00,6,0.100,14566.000,0.200,1134.000,0.300,295.000,0.500,135.000,1.000,11.000,5.000,0
"03/07/08","06:14:14",15818.000,"cc",28361.309,6.00,6,0.100,14236.000,0.200,1111.000,0.300,310.000,0.500,143.000,1.000,18.000,5.000,0
"03/07/08","06:14:20",15984.000,"cc",28271.547,6.00,6,0.100,14354.000,0.200,1164.000,0.300,309.000,0.500,133.000,1.000,24.000,5.000,0
"03/07/08","06:14:26",16512.000,"cc",28352.723,6.00,6,0.100,14834.000,0.200,1176.000,0.300,326.000,0.500,163.000,1.000,13.000,5.000,0
"03/07/08","06:14:32",15601.000,"cc",28361.738,6.00,6,0.100,14077.000,0.200,1089.000,0.300,293.000,0.500,130.000,1.000,12.000,5.000,0
"03/07/08","06:14:38",17828.000,"cc",28235.482,6.00,6,0.100,15561.000,0.200,1498.000,0.300,518.000,0.500,228.000,1.000,23.000,5.000,0
"03/07/08","06:14:44",17135.000,"cc",28371.133,6.00,6,0.100,15120.000,0.200,1415.000,0.300,393.000,0.500,179.000,1.000,28.000,5.000,0
"03/07/08","06:14:50",16137.000,"cc",28353.746,6.00,6,0.100,14581.000,0.200,1088.000,0.300,322.000,0.500,135.000,1.000,11.000,5.000,0
"03/07/08","06:14:56",16178.000,"cc",28330.018,6.00,6,0.100,14575.000,0.200,1127.000,0.300,333.000,0.500,129.000,1.000,14.000,5.000,0
"03/07/08","06:15:02",15667.000,"cc",28270.838,6.00,6,0.100,14088.000,0.200,1129.000,0.300,295.000,0.500,142.000,1.000,13.000,5.000,0
"03/07/08","06:15:08",15367.000,"cc",28283.795,6.00,6,0.100,13913.000,0.200,1087.000,0.300,258.000,0.500,92.000,1.000,17.000,5.000,0
"03/07/08","06:15:14",15844.000,"cc",28304.809,6.00,6,0.100,14265.000,0.200,1118.000,0.300,305.000,0.500,142.000,1.000,14.000,5.000,0
"03/07/08","06:15:20",16183.000,"cc",28330.777,6.00,6,0.100,14533.000,0.200,1162.000,0.300,315.000,0.500,155.000,1.000,18.000,5.000,0
"03/07/08","06:15:26",16271.000,"cc",28394.967,6.00,6,0.100,14506.000,0.200,1221.000,0.300,368.000,0.500,163.000,1.000,13.000,5.000,0
"03/07/08","06:15:32",16293.000,"cc",28244.600,6.00,6,0.100,14602.000,0.200,1216.000,0.300,296.000,0.500,164.000,1.000,15.000,5.000,0
"03/07/08","06:15:38",15986.000,"cc",28376.045,6.00,6,0.100,14366.000,0.200,1156.000,0.300,305.000,0.500,138.000,1.000,21.000,5.000,0
"03/07/08","06:15:44",15574.000,"cc",28285.697,6.00,6,0.100,14010.000,0.200,1078.000,0.300,323.000,0.500,150.000,1.000,13.000,5.000,0
"03/07/08","06:15:50",17907.000,"cc",28298.121,6.00,6,0.100,15518.000,0.200,1538.000,0.300,568.000,0.500,247.000,1.000,36.000,5.000,0
"03/07/08","06:15:56",16114.000,"cc",28346.783,6.00,6,0.100,14374.000,0.200,1181.000,0.300,356.000,0.500,189.000,1.000,14.000,5.000,0
"03/07/08","06:16:02",16393.000,"cc",28344.725,6.00,6,0.100,14592.000,0.200,1237.000,0.300,346.000,0.500,196.000,1.000,22.000,5.000,0
"03/07/08","06:16:08",16344.000,"cc",28314.596,6.00,6,0.100,14619.000,0.200,1191.000,0.300,359.000,0.500,164.000,1.000,11.000,5.000,0
"03/07/08","06:16:14",16284.000,"cc",28254.561,6.00,6,0.100,14554.000,0.200,1208.000,0.300,366.000,0.500,133.000,1.000,23.000,5.000,0
"03/07/08","06:16:20",16424.000,"cc",28310.807,6.00,6,0.100,14630.000,0.200,1277.000,0.300,341.000,0.500,159.000,1.000,17.000,5.000,0
"03/07/08","06:16:26",16205.000,"cc",28336.100,6.00,6,0.100,14401.000,0.200,1236.000,0.300,366.000,0.500,171.000,1.000,31.000,5.000,0
"03/07/08","06:16:32",16226.000,"cc",28267.152,6.00,6,0.100,14419.000,0.200,1227.000,0.300,373.000,0.500,188.000,1.000,19.000,5.000,0
"03/07/08","06:16:38",16203.000,"cc",28376.328,6.00,6,0.100,14505.000,0.200,1162.000,0.300,321.000,0.500,193.000,1.000,22.000,5.000,0
"03/07/08","06:16:44",15764.000,"cc",28302.758,6.00,6,0.100,13969.000,0.200,1212.000,0.300,375.000,0.500,188.000,1.000,20.000,5.000,0